Weather History for Fort Campbell, KY

Change the Weather History Date:

Saturday, November 2, 2013

  Actual Average Record
Temperature  
Mean Temperature 49 °F -  
Max Temperature 59 °F 62 °F 82 °F (2000)
Min Temperature 39 °F 42 °F 26 °F (2002)
Degree Days  
Heating Degree Days 16    
Moisture  
Dew Point 44 °F    
Average Humidity 82    
Maximum Humidity 100    
Minimum Humidity 60    
Precipitation  
Precipitation 0.00 in - - ()
Sea Level Pressure  
Sea Level Pressure 30.02 in    
Wind  
Wind Speed 5 mph (WNW)    
Max Wind Speed 15 mph    
Max Gust Speed -    
Visibility 10 miles    
Events      
Averages and records for this station are not official NWS values.
T = Trace of Precipitation, MM = Missing Value Source: NWS Daily Summary

Daily Weather History Graph

Daily Weather History Graph

Search for Another Location

Airport:

Trip Planner

Search our weather history database for the weather conditions in past years. The results will help you decide how hot, cold, wet, or windy it might be!

Date:

Astronomy

Nov. 02, 2013 Rise Set
Actual Time 7:14 AM CDT 5:51 PM CDT
Civil Twilight 6:47 AM CDT 6:18 PM CDT
Nautical Twilight 6:17 AM CDT 6:49 PM CDT
Astronomical Twilight 5:47 AM CDT 7:19 PM CDT
Moon 6:12 AM CDT (11/2) 5:22 PM CDT (11/2)
Length of Visible Light 11h 30m
Length of Day
10h 36m
Waning Crescent, 1% of the Moon is Illuminated
Nov 2
Waning Crescent
Nov 3
New
Nov 9
First Quarter
Nov 17
Full
Nov 25
Last Quarter

Hourly Weather History & Observations

Time (CDT) Temp. Windchill Dew Point Humidity Pressure Visibility Wind Dir Wind Speed Gust Speed Precip Events Conditions
12:58 AM 49.5 °F - 47.1 °F 92% 29.86 in 10.0 mi SSW 2.3 mph - N/A   Clear
1:58 AM 47.8 °F - 47.3 °F 98% 29.86 in 10.0 mi SW 1.2 mph - N/A   Clear
2:58 AM 45.5 °F - 45.5 °F 100% 29.86 in 10.0 mi WSW 2.3 mph - N/A   Partly Cloudy
3:58 AM 44.4 °F - 44.4 °F 100% 29.88 in 10.0 mi West 2.3 mph - N/A   Partly Cloudy
4:58 AM 44.8 °F 42.4 °F 44.8 °F 100% 29.88 in 10.0 mi SW 4.6 mph - N/A   Partly Cloudy
5:58 AM 46.4 °F 43.5 °F 46.4 °F 100% 29.91 in 10.0 mi West 5.8 mph - N/A   Mostly Cloudy
6:58 AM 44.1 °F 42.5 °F 44.1 °F 100% 29.92 in 10.0 mi SW 3.5 mph - N/A   Partly Cloudy
7:58 AM 44.2 °F 41.8 °F 44.2 °F 100% 29.94 in 10.0 mi West 4.6 mph - N/A   Clear
8:58 AM 50.0 °F - 48.7 °F 95% 29.97 in 10.0 mi WSW 4.6 mph - N/A   Clear
9:58 AM 53.4 °F - 49.1 °F 85% 29.97 in 10.0 mi WSW 5.8 mph - N/A   Scattered Clouds
10:58 AM 55.8 °F - 46.4 °F 71% 30.00 in 10.0 mi WNW 11.5 mph - N/A   Mostly Cloudy
11:21 AM 53.6 °F - 44.6 °F 72% 30.00 in 10.0 mi NW 11.5 mph - N/A   Light Drizzle
11:58 AM 52.9 °F - 45.0 °F 74% 30.01 in 10.0 mi NNW 8.1 mph - 0.00 in   Light Drizzle
12:04 PM 53.6 °F - 46.4 °F 77% 30.00 in 10.0 mi NW 8.1 mph - N/A   Mostly Cloudy
12:58 PM 56.1 °F - 44.2 °F 64% 30.01 in 10.0 mi WNW 10.4 mph - 0.00 in   Partly Cloudy
1:58 PM 56.8 °F - 43.0 °F 60% 30.00 in 10.0 mi NW 6.9 mph - N/A   Clear
2:58 PM 56.7 °F - 42.8 °F 60% 30.01 in 10.0 mi WNW 11.5 mph - N/A   Partly Cloudy
3:01 PM 55.4 °F - 44.6 °F 67% 30.00 in 10.0 mi West 15.0 mph - N/A   Light Drizzle
3:33 PM 53.6 °F - 46.4 °F 77% 30.01 in 10.0 mi West 13.8 mph - N/A   Mostly Cloudy
3:58 PM 52.0 °F - 43.9 °F 74% 30.03 in 10.0 mi North 6.9 mph - 0.00 in   Mostly Cloudy
4:58 PM 50.7 °F - 42.8 °F 74% 30.05 in 10.0 mi NNW 5.8 mph - N/A   Overcast
5:05 PM 50.0 °F - 42.8 °F 76% 30.04 in 10.0 mi NW 4.6 mph - N/A   Light Drizzle
5:09 PM 50.0 °F - 42.8 °F 76% 30.05 in 10.0 mi NNW 4.6 mph - N/A   Overcast
5:58 PM 50.4 °F - 44.4 °F 80% 30.07 in 10.0 mi NW 4.6 mph - 0.00 in   Overcast
6:58 PM 50.0 °F - 43.2 °F 77% 30.11 in 10.0 mi NW 9.2 mph - N/A   Scattered Clouds
7:58 PM 49.5 °F - 42.3 °F 76% 30.14 in 10.0 mi NW 8.1 mph - N/A   Mostly Cloudy
8:11 PM 48.2 °F - 41.0 °F 76% 30.14 in 10.0 mi NW 5.8 mph - N/A   Mostly Cloudy
8:12 PM 48.2 °F - 41.0 °F 76% 30.14 in 10.0 mi NW 5.8 mph - N/A   Mostly Cloudy
8:58 PM 46.9 °F - 41.7 °F 82% 30.17 in 10.0 mi NW 4.6 mph - N/A   Clear
9:58 PM 45.9 °F 44.6 °F 40.6 °F 82% 30.19 in 10.0 mi WNW 3.5 mph - N/A   Clear
10:57 PM 42.8 °F 41.1 °F 41.0 °F 93% 30.19 in 10.0 mi Variable 3.5 mph - N/A   Clear
11:57 PM 39.2 °F - 39.2 °F 100% 30.19 in 10.0 mi WNW 2.3 mph - N/A   Clear